Regional Weather Roundup
Issued by NWS

Home | Current Version | Previous Version | Text Only | Print | Product List | Glossary On
Versions: 1 2 3 4 5 6 7 8 9 10 11 12 13 14 15 16 17 18 19 20 21 22 23 24 25 26 27
000
ASCA42 TJSJ 210210
RWRPR
PUERTO RICO/U.S. VIRGIN ISLANDS HOURLY WEATHER ROUNDUP
NATIONAL WEATHER SERVICE SAN JUAN PR
1000 PM AST MON FEB 20 2017

PRZ001>002-007>008-010-210300-
PUERTO RICO

CITY           SKY/WX    TMP DP  RH WIND       PRES   REMARKS
SAN JUAN LMM   PTCLDY    79  70  73 SW3       29.93S
AGUADILLA      MOCLDY    75  70  83 W5        29.96S
CEIBA          PTCLDY    73  70  88 CALM      29.94F
$$

VIZ001>002-210300-
U.S. VIRGIN ISLANDS

CITY           SKY/WX    TMP DP  RH WIND       PRES   REMARKS
CHARLOTTE AMA  MOCLDY    79  70  73 W6        29.91F
CHRISTIANSTED  MOCLDY    72  70  94 CALM      29.95F
$$

HOURLY WEATHER ROUNDUP FOR THE NEWS MEDIA

CITY           SKY/WX    TMP DP  RH WIND       PRES   REMARKS
ORLANDO        CLEAR     68  64  87 E8        30.13S
NEW YORK       PTCLDY    43  11  27 NE18G26   30.34R
NEWARK         PTCLDY    41  14  33 N12       30.33R
CHICAGO        CLOUDY    62  44  51 S17G26    29.94F
HARTFORD       CLEAR     28  23  81 CALM      30.31R
BOSTON         CLEAR     37  15  40 NW9       30.33R WCI  30
DALLAS         CLEAR     61  55  81 S8        29.92S
PHILADELPHIA   CLEAR     48  18  30 NE12G20   30.30R
LOS ANGELES    CLOUDY    58  56  93 CALM      30.28R
WASHINGTON DC  PTCLDY    52  30  43 E7        30.26R



USA.gov is the U.S. government's official web portal to all federal, state and local government web resources and services.